Location: Asheville, NC
(35.6000°N, 82.5500°W)
Time: 10:38:47
(UTC-04:00)

YUBILEINY - Pass Details

Date: 15 March 2018
Orbit: 1479 x 1508 km, 82.5° (Epoch: 19 June)

Event Time Altitude Azimuth Distance (km) Brightness Sun altitude
Rises 07:03:11 0° 345° (NNW) 4,616 ? -8.5°
Reaches altitude 10° 07:06:14 10° 339° (NNW) 3,636 ? -7.9°
Maximum altitude 07:14:13 42° 272° (W) 2,015 ? -6.3°
Drops below altitude 10° 07:22:15 10° 205° (SSW) 3,641 ? -4.6°
Sets 07:25:20 0° 199° (SSW) 4,622 ? -4.0°
